Location: ??
(35.4032°N, 139.3073°E)
Time: 14:12:51
(UTC+00:00)

Cosmos 1680 Rocket - Pass Details

Date: 13 April 2024
Orbit: 758 x 778 km, 74.1° (Epoch: 29 May)

Event Time Altitude Azimuth Distance (km) Brightness Sun altitude
Exits shadow 17:45:57 49° 133° (SE) 993 4.0 -27.8°
Maximum altitude 17:46:42 53° 103° (ESE) 945 4.1 -27.7°
Drops below altitude 10° 17:51:51 10° 27° (NNE) 2,333 6.8 -26.9°
Sets 17:54:17 0° 23° (NNE) 3,265 7.6 -26.5°
